Tracking 30415 objects as of 14-May-2025
HD Live streaming from Space Station
objects crossing your sky now

THORAD AGENA D DEB

Track THORAD AGENA D DEB now!
10-day predictions


NORAD ID: 4748
Int'l Code: 1970-025CW
Perigee: 1,023.4 km
Apogee: 1,032.1 km
Inclination: 100.1 °
Period: 105.6 minutes
Semi major axis: 7398 km
RCS: 0.1028 m2 (medium)
Launch date: April 8, 1970
Source: United States (US)
Launch site: AIR FORCE WESTERN TEST RANGE (AFWTR)

Note: This is SATELLITE DEBRIS
Your satellite tracking list
Your tracking list is empty




NASA's NSSDC Master Catalog

Two Line Element Set (TLE):
1  4748U 70025CW  25134.40401789  .00000407  00000-0  56962-3 0  9997
2  4748 100.0893 291.4406 0005879  54.5689 305.6000 13.64163758729037
Source of the keplerian elements: AFSPC